STARLINK-3245, 50170

Orbit data source: Space-Track

STARLINK-3245, 50170 is a payload satellite owned by SpaceX/Seattle (US) in LEO that was launched on Sat, 18 Dec 2021 UTC via an FALCON 9 launch vehicle from the Air Force Western Test Range (AFWTR). Payload-class satellites include a variety of spacecraft equipped with specific instruments for various scientific and technological missions. These include communications satellites like Starlink; space stations such as the ISS; scientific satellites like the Hubble; Earth observation satellites from companies like Planet Labs, Umbra, and HawkEye 360; GPS; miniature CubeSats for education and research; and military/defense satellites.

Loading next visibility...
Identifier
50170, 2021-125Q
Orbit
LEO
Country
Flag of USUS
Related business
Manufacturer
SpaceX/Seattle
Mission
Operational Commercial Communications
Bus & Motor
STARLINK, Unknown motor
Mass
290 kg wet, ~270 kg dry
Launch date (UTC)
2021-12-18 (5 years ago)
Launch vehicle
FALCON 9
Launch site
Air Force Western Test Range (AFWTR)
Object type
Payload
Rocket body
Debris
Shape & HBR
Box + 1 Pan, 10.1 m
Radar Cross Section
13.562 m², Large (>1 m²)

Expand to show TLE details & history
Last TLE update: 7 hours ago

TLE from 7 hours ago
0 STARLINK-3245
1 50170U 21125Q   26170.24875648  .00000006  00000-0  18474-4 0  9998
2 50170  53.1587 153.0965 0001195  73.9182 286.1941 15.08830312251920
Epoch: 2026-06-19T05:58Z
TLE epoch observation values (Epoch: 2026-06-19T05:58:12.559Z)
Latitude
-0.00004°
Longitude
156.06369°
Altitude
540.434 km
Speed
7.593 km/s
True Right ascension
10h 12m 23s
True Declination
0° 00' 00"
Sunlit
Object was in daylight at epoch
Visualization orbit readout
Latitude
Unknown
Longitude
Unknown
Altitude
Unknown
Speed
Unknown
Apparent Right ascension
Unknown
Apparent Declination
Unknown
Sunlit
N/A
Visualization observer readout
Local Sidereal Time
23:59:03
Azimuth
Unknown
Elevation
Unknown
Doppler factor
Unknown
Orbital elements
Apogee altitude
540.854 km
Perigee altitude
539.201 km
Semi-major axis
6,918.164 km
Eccentricity
0.00012
Inclination
53.1587°
RAAN
153.0965°
Arg. of periapsis
73.9182°
True anomaly
286.18095°
Mean anomaly
286.1941°
Eccentric anomaly
286.18752°
Mean motion
3.77187 °/min
Orbital period
95.44 mins
BSTAR
0.000018474
Loading maneuver chart data...
Computing Atmospheric mass density...
Loading historical data...
Loading historical data...
Loading historical data...
Loading historical data...
Loading historical data...
Loading historical data...
Loading historical data...

Documentation

Showing up to 5 results
|